Location: Noordwijk
(52.2400°N, 4.4500°E)
Time: 02:46:19
(UTC+00:00)

PCSat - Pass Details

Date: 14 December 2022
Orbit: 785 x 793 km, 67.0° (Epoch: 28 January)

Event Time Altitude Azimuth Distance (km) Brightness Sun altitude
Rises 17:50:54 0° 236° (SW) 3,276 14.0 -20.2°
Reaches altitude 10° 17:53:22 10° 241° (WSW) 2,351 13.1 -20.6°
Maximum altitude 17:58:37 50° 317° (NW) 1,001 10.2 -21.4°
Enters shadow 18:01:26 26° 20° (NNE) 1,525 10.8 -21.8°
